Temp
17 16 16 16 17 18 18 18 17 17 17 16 16 15 15 15 15 17 18 18 17 16 16 17 17 17 17 13 11 11 10 9 8 8 7 7 6 6 5 5 5 4 4 4 4 4 3 3 3 3 3 3 3 3 3 3 3 3 3 3 3 3 4 5 6 7 8 9 9 9 9 8 9 9 8 8 8 8 9 9 9 9 8 9 9 9
16 15 16 16 17 17 17 17 17 16 16 15 15 15 15 15 15 17 18 16 16 15 16 17 16 17 16 12 10 10 9 8 8 7 6 6 6 5 5 4 4 4 4 4 3 3 3 3 2 2 2 2 2 2 2 2 2 2 2 2 2 2 2 3 3 5 6 7 8 8 9 9 9 8 8 8 8 8 8 8 8 8 8 8 8 8
16 16 16 16 16 16 16 17 16 16 16 15 14 14 14 15 16 17 17 16 16 15 15 16 16 16 14 10 10 9 7 7 7 7 6 5 5 4 4 3 3 3 3 3 3 2 2 2 2 2 2 2 1 2 2 2 2 1 2 1 1 1 1 1 2 3 4 5 6 8 8 8 8 8 8 8 7 7 7 7 7 7 7 7 7 7
16 17 16 15 16 16 15 16 16 16 15 15 14 14 15 16 16 16 16 16 16 15 15 15 15 15 12 9 9 8 7 6 6 6 5 5 4 4 3 3 2 2 2 2 2 2 2 2 2 1 1 1 1 1 1 1 1 1 1 1 1 0 0 0 0 1 3 4 5 6 7 7 7 8 7 7 7 7 7 7 7 7 7 7 7 7
16 17 15 15 16 15 15 15 15 15 15 15 16 15 15 15 15 15 15 16 15 15 16 15 14 14 12 9 7 7 7 6 6 5 5 4 4 4 3 3 3 2 2 1 1 1 1 1 1 1 1 0 0 0 0 1 0 0 0 0 0 0 -0 -0 -0 0 1 2 4 4 5 5 6 6 7 7 6 6 6 7 7 7 7 7 6 6
16 16 15 14 15 15 15 14 15 15 14 15 15 14 14 14 14 14 14 14 13 14 16 15 13 14 13 9 7 7 6 6 6 5 4 4 4 3 3 3 3 2 2 2 1 1 1 1 1 0 0 0 -0 -0 -0 -0 -0 -0 -0 -0 -0 -0 -1 -1 -1 -1 -0 0 1 1 1 2 2 3 4 5 5 6 6 6 6 6 6 6 6 6
15 16 14 14 14 14 15 14 14 14 13 13 14 13 13 13 13 13 13 13 12 13 15 15 14 12 12 10 8 7 6 6 5 5 4 4 3 3 3 3 2 2 2 2 1 1 1 1 1 0 0 -0 -0 -1 -1 -1 -0 -1 -1 -1 -1 -1 -1 -1 -1 -1 -1 -1 -1 -2 -2 -1 -1 -0 1 2 4 4 5 5 6 5 5 5 5 5
15 16 15 14 14 14 14 14 14 14 13 13 13 12 12 12 12 12 12 12 12 13 14 15 14 12 13 11 8 7 6 5 5 4 4 3 3 3 2 2 2 2 2 2 1 1 1 1 1 0 0 0 -0 -1 -1 -1 -1 -1 -1 -1 -1 -1 -2 -2 -2 -2 -2 -2 -2 -2 -2 -2 -2 -2 -1 0 2 3 4 5 5 5 5 5 5 5
15 15 15 14 13 13 14 13 13 13 13 14 13 11 11 11 11 12 12 11 12 12 11 13 14 13 12 10 7 7 6 5 4 4 3 3 2 2 2 2 2 2 2 2 1 1 1 1 1 1 0 0 -0 -0 -1 -1 -1 -1 -1 -1 -1 -2 -2 -2 -2 -2 -2 -2 -2 -2 -2 -2 -2 -2 -2 -1 0 1 2 3 4 4 5 5 5 5
14 13 13 13 13 13 13 13 13 12 13 13 12 11 11 11 11 11 11 11 12 11 10 12 14 13 12 9 7 7 6 5 4 3 3 3 2 2 2 2 2 1 1 1 1 1 1 1 0 0 0 0 -0 -0 -0 -1 -1 -1 -1 -1 -2 -2 -2 -2 -2 -3 -3 -2 -2 -2 -2 -2 -2 -2 -2 -1 -1 -0 0 1 2 3 3 4 4 4
14 12 12 13 12 12 12 12 13 12 12 12 11 12 12 12 13 12 12 11 11 10 11 13 14 13 12 8 6 6 6 5 4 3 3 2 2 2 1 1 1 1 1 1 1 1 1 0 0 0 0 -0 -0 -1 -1 -1 -1 -1 -1 -1 -2 -2 -2 -2 -3 -3 -3 -3 -3 -3 -3 -3 -2 -2 -2 -2 -2 -2 -2 -1 -0 1 2 2 3 4
15 12 12 12 10 11 12 12 13 13 11 11 11 12 12 12 14 13 13 12 10 10 12 14 14 14 13 8 4 4 4 5 4 3 3 2 2 1 1 1 1 1 1 1 1 0 0 0 0 0 -0 -0 -0 -1 -1 -1 -1 -2 -2 -2 -2 -2 -2 -3 -3 -3 -3 -3 -3 -3 -3 -3 -3 -3 -3 -2 -2 -2 -2 -2 -2 -2 -0 1 2 2
14 13 12 11 10 11 12 12 13 13 12 11 11 12 11 11 11 11 12 12 10 11 14 14 13 13 10 6 4 3 3 3 3 3 2 2 2 1 1 1 1 1 1 0 1 0 -0 -0 -0 0 -0 -0 -0 -1 -1 -1 -2 -2 -2 -2 -2 -2 -2 -3 -3 -3 -3 -3 -4 -4 -4 -4 -4 -4 -3 -3 -3 -2 -2 -3 -3 -3 -2 -1 -0 1
12 13 13 12 11 12 12 12 12 12 12 12 11 11 10 10 9 9 10 11 10 12 14 14 13 11 8 4 3 3 2 3 3 2 2 2 2 1 1 1 1 1 1 0 1 0 -0 0 0 0 -0 -0 -0 -1 -1 -1 -2 -2 -2 -2 -3 -3 -3 -3 -3 -3 -4 -4 -4 -4 -4 -4 -4 -4 -4 -4 -3 -3 -3 -3 -3 -3 -3 -2 -2 -1
11 12 13 13 13 12 12 13 12 12 12 11 12 12 11 11 10 9 9 9 10 10 12 13 12 10 7 3 2 3 2 2 2 2 2 2 1 1 1 1 1 1 1 1 1 0 0 1 1 0 -0 -0 -1 -1 -1 -1 -2 -2 -2 -2 -3 -3 -3 -3 -3 -3 -4 -4 -4 -4 -4 -5 -5 -5 -5 -5 -4 -4 -4 -4 -3 -3 -3 -2 -2 -2
11 12 13 14 14 14 13 13 13 12 11 12 13 12 11 12 11 10 10 10 10 9 10 12 9 5 3 3 2 3 2 2 2 2 2 1 1 1 1 1 1 1 1 1 1 0 0 1 1 0 -0 -0 -1 -1 -1 -1 -2 -2 -2 -3 -3 -3 -3 -3 -3 -4 -4 -4 -4 -4 -5 -5 -5 -5 -5 -5 -5 -5 -5 -4 -4 -4 -3 -3 -2 -2
10 10 13 13 13 14 13 13 13 12 11 12 12 11 11 12 11 10 9 10 10 9 9 12 9 3 1 2 2 2 1 1 1 1 1 1 1 1 1 0 0 1 1 1 1 1 0 1 1 1 -0 -0 -1 -1 -1 -1 -2 -2 -2 -2 -3 -3 -3 -3 -4 -4 -4 -4 -4 -5 -5 -5 -5 -5 -5 -6 -6 -5 -5 -5 -5 -4 -4 -3 -3 -2
10 9 11 12 12 14 13 12 12 12 11 10 10 11 11 12 12 10 9 9 9 8 9 11 10 5 3 2 1 1 0 -0 -0 -0 -0 -0 -0 -0 0 0 0 1 1 1 1 0 0 1 1 1 0 -0 -1 -1 -1 -1 -2 -2 -2 -2 -3 -3 -3 -4 -4 -4 -4 -4 -5 -5 -5 -5 -5 -6 -6 -6 -6 -6 -6 -6 -5 -5 -4 -4 -4 -3
10 8 10 12 12 12 13 11 11 12 12 11 11 11 11 9 9 9 8 7 7 7 7 8 8 5 2 1 0 -1 -1 -1 -1 -1 -1 -1 -1 -0 -0 0 0 0 0 1 1 0 1 1 1 1 1 0 -0 -1 -1 -1 -2 -2 -2 -2 -3 -3 -3 -4 -4 -4 -4 -5 -5 -5 -5 -6 -6 -6 -6 -6 -6 -6 -6 -6 -6 -5 -5 -5 -5 -5
10 8 8 11 12 11 12 11 10 11 12 11 11 11 10 9 7 6 7 7 5 4 4 4 4 3 0 -0 -1 -2 -2 -1 -2 -1 -1 -1 -1 -0 -0 -0 -0 0 -0 -0 0 0 0 0 1 1 0 0 -0 -1 -1 -1 -2 -2 -2 -2 -2 -3 -3 -3 -4 -4 -4 -5 -5 -5 -6 -6 -6 -6 -6 -6 -7 -7 -6 -6 -6 -6 -6 -6 -6 -6
10 9 8 9 11 10 10 11 10 10 9 9 9 8 6 6 6 5 6 6 4 2 2 2 3 2 -1 -1 -1 -2 -1 -1 -2 -2 -2 -1 -1 -1 -0 -0 -1 -0 -0 -0 -0 -0 -0 0 1 1 1 0 0 -1 -1 -1 -1 -2 -2 -2 -2 -2 -3 -3 -3 -4 -4 -4 -5 -5 -5 -6 -6 -6 -7 -7 -7 -7 -7 -7 -7 -7 -7 -7 -8 -8
8 8 7 7 9 9 9 11 11 9 8 7 7 6 4 4 4 3 3 4 3 2 2 2 2 1 -2 -1 -1 -2 -2 -2 -2 -2 -2 -1 -1 -0 -0 0 -0 -0 -0 -0 -0 -0 -0 -0 0 0 1 1 0 -0 -1 -1 -1 -1 -2 -2 -2 -2 -3 -3 -3 -3 -4 -4 -4 -4 -5 -5 -6 -6 -7 -7 -7 -7 -7 -7 -8 -8 -8 -8 -8 -8
7 7 7 7 8 9 9 11 10 9 8 7 7 6 4 3 3 1 1 2 2 2 3 2 2 0 -3 -2 -1 -2 -2 -1 -1 -1 -1 -1 -0 -0 0 0 0 0 0 0 -0 -0 -0 -0 -0 -0 0 0 0 -0 -1 -1 -1 -1 -2 -2 -2 -3 -3 -3 -3 -3 -3 -4 -4 -4 -4 -5 -5 -6 -6 -7 -7 -7 -8 -8 -8 -8 -9 -9 -9 -9
7 7 7 6 7 9 9 10 10 9 7 6 6 5 3 2 2 1 2 2 1 1 1 0 1 -0 -2 -2 -1 -1 -1 -1 -1 -0 -0 -0 -0 0 0 0 0 0 0 -0 -0 -0 -0 -0 -1 -1 -1 -0 -1 -1 -1 -1 -2 -2 -2 -2 -3 -3 -3 -3 -3 -3 -3 -4 -4 -4 -5 -5 -6 -6 -7 -7 -7 -7 -8 -8 -8 -9 -9 -10 -10 -10
6 6 6 5 5 6 6 6 7 7 6 6 5 4 2 2 1 1 2 2 1 0 -1 -1 -0 -0 -1 -2 -1 -1 -1 -1 -1 -0 -0 -0 -0 -0 -0 -0 -0 -0 -0 -1 -1 -1 -1 -1 -1 -1 -1 -1 -1 -2 -2 -2 -2 -2 -2 -3 -3 -3 -3 -3 -3 -4 -4 -4 -4 -4 -5 -5 -6 -6 -6 -7 -7 -8 -8 -9 -9 -9 -10 -10 -10 -10
5 6 6 4 3 2 3 3 4 4 5 5 4 3 2 1 0 0 1 0 -0 -1 -1 -1 -2 -1 -1 -1 -1 -0 -1 -1 -1 -0 -0 -0 -0 -0 -1 -1 -1 -1 -1 -1 -1 -1 -1 -2 -2 -2 -2 -2 -2 -2 -2 -2 -2 -3 -3 -3 -3 -3 -3 -4 -4 -4 -4 -4 -4 -5 -5 -5 -6 -6 -6 -7 -8 -8 -9 -9 -9 -9 -10 -10 -10 -9
5 5 5 5 3 3 3 3 4 4 4 4 3 1 1 1 0 0 -0 -1 -1 -2 -2 -1 -2 -3 -2 -1 -1 -0 -1 -1 -1 -1 -1 -1 -1 -1 -1 -1 -1 -1 -1 -1 -2 -2 -2 -2 -2 -2 -2 -2 -2 -2 -3 -3 -3 -3 -3 -3 -4 -4 -4 -4 -4 -4 -4 -5 -5 -5 -5 -5 -6 -6 -7 -7 -8 -9 -9 -9 -10 -10 -10 -10 -10 -10
4 4 4 4 3 3 3 4 4 5 4 3 1 0 0 0 -0 -0 -1 -1 -1 -3 -3 -1 -2 -3 -2 -2 -1 -1 -1 -2 -2 -2 -2 -1 -1 -1 -1 -2 -2 -2 -2 -2 -2 -2 -3 -3 -3 -3 -3 -3 -3 -3 -3 -3 -3 -3 -4 -4 -4 -4 -4 -4 -5 -5 -5 -5 -5 -5 -5 -6 -6 -6 -7 -8 -8 -9 -9 -10 -10 -10 -10 -10 -10 -10
3 3 4 3 2 3 3 4 4 4 4 2 0 -0 -0 -0 -1 -1 -1 -1 -1 -3 -3 -2 -2 -3 -2 -2 -1 -1 -1 -2 -2 -2 -2 -2 -2 -2 -2 -3 -3 -3 -3 -3 -3 -3 -3 -3 -3 -3 -3 -3 -3 -3 -3 -3 -4 -4 -4 -4 -5 -5 -5 -5 -5 -5 -5 -6 -6 -6 -6 -6 -6 -7 -7 -8 -9 -9 -9 -10 -10 -10 -10 -11 -11 -11
3 3 3 2 2 2 3 4 4 4 4 2 -0 -1 -0 -1 -1 -1 -2 -1 -2 -3 -3 -2 -3 -3 -2 -2 -1 -1 -1 -2 -2 -2 -2 -2 -2 -3 -3 -3 -3 -3 -3 -4 -4 -4 -4 -4 -3 -4 -4 -4 -4 -5 -5 -5 -5 -5 -5 -5 -5 -6 -6 -6 -6 -6 -6 -6 -7 -7 -7 -7 -7 -7 -8 -8 -9 -9 -9 -9 -10 -10 -11 -11 -11 -12
3 2 3 2 1 2 3 4 3 3 3 2 -1 -1 -1 -1 -1 -2 -3 -2 -3 -3 -3 -3 -4 -3 -2 -1 -2 -2 -2 -2 -2 -2 -3 -3 -3 -3 -4 -4 -4 -4 -4 -4 -4 -4 -4 -4 -4 -4 -5 -5 -6 -6 -6 -6 -6 -6 -6 -6 -6 -6 -6 -6 -6 -6 -7 -8 -8 -8 -8 -8 -8 -8 -8 -9 -9 -9 -9 -10 -10 -11 -11 -11 -12 -12
3 1 2 2 0 1 2 3 2 2 3 1 -1 -2 -2 -2 -2 -3 -3 -3 -3 -4 -4 -4 -4 -4 -2 -2 -3 -3 -2 -3 -3 -3 -3 -3 -4 -4 -4 -4 -4 -4 -5 -5 -5 -5 -5 -5 -5 -6 -6 -6 -6 -6 -6 -6 -6 -6 -6 -6 -6 -6 -6 -7 -7 -7 -8 -9 -9 -9 -9 -9 -9 -9 -9 -9 -9 -9 -10 -10 -11 -11 -12 -12 -12 -13
2 1 1 1 -0 0 2 2 2 1 1 -0 -2 -3 -3 -3 -3 -3 -3 -3 -3 -3 -4 -5 -4 -4 -3 -3 -4 -4 -4 -4 -4 -4 -4 -4 -4 -4 -4 -4 -4 -5 -5 -5 -5 -5 -5 -6 -6 -6 -6 -7 -7 -7 -7 -7 -7 -6 -6 -6 -7 -7 -7 -7 -8 -8 -9 -9 -9 -9 -9 -9 -9 -9 -9 -9 -9 -10 -10 -11 -12 -12 -12 -13 -13 -13
2 1 0 1 -0 -0 1 2 1 -0 -1 -1 -2 -2 -3 -3 -3 -4 -4 -3 -3 -3 -3 -4 -4 -4 -4 -4 -4 -4 -4 -4 -4 -4 -4 -4 -4 -4 -4 -5 -5 -5 -5 -6 -6 -6 -6 -6 -7 -7 -7 -8 -7 -7 -7 -7 -7 -7 -8 -8 -8 -8 -8 -9 -9 -10 -10 -10 -10 -10 -10 -9 -9 -9 -9 -10 -10 -11 -11 -12 -12 -13 -13 -14 -14 -14
1 0 0 1 -0 -0 1 0 -1 -2 -1 -2 -2 -2 -2 -2 -3 -4 -4 -3 -3 -3 -3 -4 -4 -4 -4 -4 -4 -4 -4 -4 -4 -4 -4 -4 -4 -5 -5 -5 -5 -5 -6 -6 -6 -6 -6 -7 -7 -8 -8 -8 -8 -8 -9 -9 -9 -9 -9 -9 -9 -10 -10 -10 -10 -10 -10 -10 -10 -11 -10 -10 -10 -10 -10 -11 -11 -11 -12 -13 -13 -13 -14 -14 -14 -14
0 0 0 0 -0 -1 -1 -2 -3 -2 -0 -1 -3 -2 -2 -3 -3 -4 -4 -3 -3 -3 -4 -5 -5 -4 -4 -4 -4 -4 -4 -4 -5 -5 -4 -4 -4 -5 -6 -6 -6 -6 -6 -6 -6 -7 -7 -7 -7 -8 -8 -8 -9 -9 -9 -9 -9 -10 -10 -10 -10 -10 -10 -11 -11 -11 -11 -11 -11 -11 -11 -11 -11 -11 -11 -11 -12 -12 -12 -13 -13 -14 -14 -15 -15 -15
1 0 -0 -1 -0 -1 -2 -2 -2 -1 -1 -2 -4 -3 -3 -3 -3 -4 -5 -4 -3 -3 -4 -5 -5 -5 -5 -5 -5 -5 -5 -5 -6 -5 -5 -4 -5 -5 -6 -6 -6 -6 -6 -6 -7 -7 -7 -7 -8 -8 -8 -9 -9 -10 -10 -10 -10 -10 -11 -11 -11 -11 -11 -11 -12 -12 -12 -12 -12 -12 -12 -12 -12 -12 -12 -12 -12 -12 -13 -13 -14 -14 -15 -15 -15 -15
2 1 -0 -2 -1 -1 -2 -3 -3 -3 -3 -3 -4 -3 -2 -3 -3 -3 -5 -5 -4 -4 -4 -5 -5 -5 -5 -5 -5 -5 -6 -6 -7 -6 -5 -5 -6 -6 -6 -6 -6 -6 -6 -7 -7 -7 -8 -8 -8 -8 -9 -9 -10 -10 -10 -10 -11 -11 -11 -11 -12 -12 -12 -12 -12 -12 -12 -12 -13 -13 -13 -13 -13 -12 -12 -12 -13 -13 -13 -14 -14 -15 -15 -15 -15 -15
1 1 0 -1 -2 -1 -3 -4 -4 -4 -4 -3 -4 -3 -2 -3 -3 -3 -6 -6 -4 -4 -5 -5 -5 -5 -5 -5 -6 -6 -7 -8 -8 -7 -6 -6 -6 -6 -6 -7 -6 -7 -7 -7 -8 -8 -8 -8 -9 -9 -10 -10 -10 -10 -11 -11 -12 -12 -12 -12 -12 -13 -13 -13 -13 -13 -13 -13 -13 -13 -13 -13 -13 -13 -13 -13 -14 -14 -14 -14 -15 -15 -15 -16 -15 -15
0 -0 -1 -2 -2 -2 -3 -4 -4 -4 -3 -3 -3 -3 -3 -2 -3 -5 -7 -6 -4 -4 -5 -5 -5 -5 -5 -6 -6 -7 -7 -8 -8 -7 -6 -6 -6 -7 -7 -7 -7 -7 -8 -8 -8 -9 -9 -9 -10 -10 -10 -11 -11 -11 -12 -12 -12 -12 -13 -13 -13 -13 -13 -13 -13 -13 -14 -14 -13 -13 -13 -14 -14 -14 -14 -14 -14 -14 -15 -15 -15 -16 -16 -16 -16 -15
-1 -1 -2 -2 -2 -3 -3 -4 -4 -3 -3 -3 -3 -3 -3 -3 -4 -6 -7 -5 -4 -5 -5 -5 -5 -5 -6 -6 -7 -7 -7 -7 -7 -7 -7 -7 -7 -7 -7 -8 -8 -8 -9 -9 -9 -9 -9 -10 -11 -11 -11 -11 -12 -12 -12 -12 -13 -13 -13 -14 -14 -14 -14 -14 -14 -14 -14 -14 -14 -14 -14 -14 -14 -14 -15 -15 -15 -15 -15 -16 -16 -16 -16 -16 -16 -16
-2 -3 -3 -2 -3 -4 -4 -5 -5 -4 -3 -3 -3 -2 -2 -4 -6 -7 -5 -4 -5 -5 -5 -5 -5 -6 -6 -7 -7 -7 -7 -7 -7 -7 -7 -8 -8 -8 -8 -8 -9 -9 -9 -9 -10 -10 -11 -11 -12 -12 -12 -12 -12 -13 -13 -13 -14 -14 -14 -14 -14 -14 -14 -14 -14 -14 -15 -15 -15 -15 -15 -15 -15 -15 -15 -15 -16 -16 -16 -16 -16 -17 -17 -16 -16 -16
-3 -3 -3 -3 -3 -4 -4 -5 -5 -5 -3 -2 -3 -3 -3 -5 -6 -5 -4 -5 -5 -5 -5 -5 -6 -6 -7 -7 -7 -7 -7 -8 -8 -8 -8 -8 -8 -8 -9 -9 -10 -10 -10 -10 -10 -11 -12 -12 -12 -13 -13 -13 -13 -13 -13 -14 -14 -15 -15 -15 -14 -14 -14 -14 -15 -15 -15 -16 -16 -16 -16 -16 -16 -16 -16 -16 -16 -16 -17 -17 -17 -17 -17 -16 -16 -16
-3 -3 -4 -3 -4 -5 -6 -5 -5 -4 -3 -2 -3 -4 -4 -4 -4 -4 -5 -5 -5 -5 -6 -6 -6 -7 -7 -7 -8 -8 -8 -9 -8 -8 -9 -9 -9 -9 -10 -10 -10 -11 -11 -11 -11 -12 -12 -13 -13 -13 -13 -13 -13 -14 -14 -15 -15 -15 -15 -15 -15 -15 -15 -15 -16 -16 -16 -16 -17 -17 -17 -17 -17 -17 -17 -17 -17 -17 -17 -17 -17 -17 -16 -16 -16 -15
-3 -3 -3 -4 -4 -5 -5 -5 -3 -3 -2 -2 -3 -4 -4 -4 -4 -4 -5 -5 -5 -6 -6 -7 -7 -7 -7 -8 -8 -9 -9 -9 -9 -9 -9 -9 -10 -10 -10 -11 -11 -11 -11 -12 -12 -13 -13 -13 -14 -14 -14 -14 -14 -15 -15 -15 -15 -15 -15 -15 -15 -15 -15 -16 -16 -17 -17 -17 -17 -17 -17 -17 -17 -17 -17 -17 -17 -17 -17 -17 -16 -16 -16 -15 -15 -15
-2 -2 -3 -4 -4 -4 -4 -3 -2 -3 -3 -3 -3 -3 -4 -4 -4 -4 -5 -5 -6 -6 -6 -7 -7 -7 -8 -8 -9 -9 -9 -9 -9 -10 -10 -10 -10 -11 -11 -11 -11 -12 -12 -12 -13 -13 -14 -14 -14 -14 -14 -14 -15 -15 -15 -15 -15 -15 -15 -15 -15 -16 -16 -16 -17 -17 -17 -18 -18 -18 -18 -17 -17 -17 -17 -17 -17 -17 -17 -17 -16 -16 -16 -15 -15 -15
-2 -4 -4 -4 -4 -5 -5 -3 -3 -3 -3 -3 -3 -4 -4 -4 -4 -4 -5 -5 -6 -6 -7 -7 -8 -8 -8 -9 -9 -9 -10 -10 -10 -10 -10 -11 -11 -11 -12 -12 -12 -12 -13 -13 -14 -14 -14 -15 -15 -15 -15 -15 -16 -16 -16 -16 -16 -16 -16 -16 -16 -16 -17 -17 -17 -17 -18 -18 -18 -18 -18 -17 -17 -17 -17 -17 -17 -17 -17 -17 -17 -16 -16 -16 -15 -15
-3 -4 -4 -4 -4 -5 -5 -3 -3 -3 -3 -4 -4 -5 -5 -5 -4 -5 -5 -6 -6 -7 -7 -7 -8 -8 -8 -9 -9 -10 -10 -10 -10 -10 -11 -11 -12 -12 -12 -12 -13 -13 -14 -14 -14 -15 -15 -15 -15 -15 -15 -16 -16 -16 -16 -16 -16 -16 -16 -16 -16 -17 -17 -17 -17 -18 -18 -18 -18 -18 -18 -17 -17 -17 -18 -18 -17 -17 -17 -17 -17 -17 -17 -16 -16 -16
-3 -4 -4 -4 -4 -5 -4 -4 -4 -4 -5 -5 -5 -5 -4 -4 -5 -5 -6 -6 -6 -7 -7 -8 -8 -8 -9 -9 -10 -10 -10 -11 -11 -11 -12 -12 -12 -12 -13 -13 -13 -14 -15 -15 -15 -15 -15 -15 -15 -15 -16 -16 -16 -16 -16 -16 -16 -16 -16 -16 -17 -17 -18 -18 -18 -18 -18 -19 -19 -18 -18 -18 -18 -18 -18 -18 -18 -18 -18 -17 -17 -17 -17 -17 -16 -16
-3 -4 -4 -4 -5 -5 -5 -4 -5 -6 -6 -6 -5 -5 -5 -5 -5 -6 -6 -7 -7 -7 -8 -8 -8 -8 -9 -10 -10 -10 -11 -11 -11 -11 -12 -12 -13 -13 -13 -14 -14 -15 -15 -15 -15 -16 -16 -16 -16 -16 -16 -17 -17 -17 -17 -16 -16 -16 -17 -17 -17 -18 -18 -19 -19 -19 -19 -19 -19 -19 -19 -18 -18 -18 -18 -18 -18 -18 -18 -18 -17 -17 -17 -16 -16 -16
-2 -3 -3 -4 -5 -5 -4 -4 -4 -5 -6 -5 -5 -5 -5 -5 -6 -6 -7 -7 -8 -8 -8 -8 -9 -10 -10 -10 -10 -10 -11 -11 -11 -12 -12 -13 -13 -13 -14 -14 -15 -15 -16 -16 -16 -16 -16 -16 -16 -16 -17 -17 -17 -17 -17 -17 -17 -17 -17 -18 -18 -18 -19 -19 -20 -20 -19 -19 -19 -19 -19 -19 -19 -19 -19 -18 -18 -18 -18 -18 -18 -18 -17 -17 -16 -16
Height
799 804 806 804 801 795 792 792 792 793 793 794 796 796 795 793 788 779 773 769 769 775 775 770 771 766 766 779 786 787 790 792 796 798 801 804 806 809 811 813 813 814 814 814 813 812 810 809 806 805 803 800 798 796 794 792 790 788 787 785 784 783 781 779 778 778 778 777 777 777 778 780 782 783 785 786 787 788 790 791 793 795 797 798 800 801
801 808 806 800 798 796 795 793 793 793 795 796 797 797 795 793 786 775 772 773 772 777 774 768 770 765 767 782 787 789 793 796 798 800 803 806 809 812 814 815 816 816 817 816 815 813 812 810 808 807 805 803 801 799 797 795 794 793 790 789 788 787 784 783 782 780 778 778 777 776 776 777 778 780 782 783 785 786 787 789 791 793 795 797 798 799
803 804 802 799 797 798 796 793 793 794 795 799 798 799 797 789 782 775 773 775 775 778 775 770 770 765 772 786 789 793 798 800 801 802 806 809 812 816 817 818 819 819 819 818 817 815 813 812 811 809 807 806 805 803 801 799 797 795 794 793 792 790 788 786 785 783 780 779 778 777 777 777 778 779 781 782 783 785 786 788 790 791 793 795 796 798
807 800 799 800 798 798 798 795 796 795 795 798 798 798 794 786 785 783 778 776 775 776 773 769 767 767 779 791 793 798 800 802 806 806 809 812 814 817 819 821 821 821 821 820 819 817 816 814 813 812 810 809 808 806 804 802 800 799 798 797 796 794 792 790 788 785 783 781 778 778 778 778 779 780 781 782 783 784 786 787 788 789 790 792 794 796
808 799 799 801 799 799 801 799 799 799 798 795 793 794 792 787 787 787 782 777 775 773 767 767 769 765 774 790 796 800 802 803 807 808 811 814 816 818 819 821 822 822 822 822 821 819 818 817 815 814 813 812 811 809 808 806 805 803 802 801 799 797 796 793 791 788 785 782 779 778 778 778 779 780 781 782 783 783 784 785 785 785 786 788 790 792
806 799 801 803 802 802 803 803 801 801 804 799 795 797 795 791 791 789 786 784 784 776 762 765 772 763 765 784 795 799 801 804 807 809 814 816 817 820 820 822 822 822 823 823 822 821 819 818 817 817 816 814 813 812 811 810 808 807 805 803 802 800 798 796 794 791 788 785 784 783 782 782 783 783 784 784 784 784 784 783 784 785 786 787 788 790
805 799 804 806 806 806 803 804 803 803 808 804 798 799 797 795 795 792 790 790 789 778 763 763 772 768 766 776 788 796 800 804 808 811 815 818 820 822 822 823 824 823 824 823 823 822 820 819 819 818 817 816 815 815 813 812 810 809 807 806 804 802 801 799 797 795 792 790 788 788 788 788 787 786 786 785 785 784 784 784 785 785 786 787 788 789
805 802 804 806 808 808 805 806 805 806 810 804 798 802 801 798 797 793 791 792 785 777 768 762 767 769 762 767 782 792 799 805 809 813 817 820 822 823 824 825 825 825 825 824 823 823 822 821 820 819 819 818 817 816 815 813 812 811 809 808 807 805 804 802 800 798 796 794 793 792 791 790 789 789 787 786 785 784 784 784 784 784 785 786 787 788
805 805 805 809 813 810 807 808 807 808 809 800 798 805 803 799 797 792 791 790 783 783 779 762 762 765 759 773 789 792 800 808 811 816 819 822 824 825 827 827 827 827 826 825 825 824 824 823 823 822 821 820 819 817 816 815 814 812 811 810 808 807 806 804 802 801 799 798 796 795 794 792 791 790 788 787 785 784 783 783 783 784 784 784 785 786
807 810 810 812 814 811 811 811 808 810 807 800 801 802 798 795 793 790 791 789 783 788 786 764 759 760 758 780 794 790 799 808 812 819 821 824 827 827 829 829 828 828 828 827 827 826 826 826 825 824 823 822 820 819 818 817 815 814 812 811 810 808 807 806 804 803 802 800 799 797 795 793 792 791 789 787 786 784 784 783 783 783 783 784 783 784
808 814 813 813 816 815 816 813 807 807 806 803 803 798 793 787 781 780 780 784 790 791 778 758 756 756 755 780 800 798 800 806 812 820 823 826 828 829 831 831 831 830 829 829 828 828 828 827 827 826 825 824 822 821 819 818 816 815 813 812 811 809 808 808 806 805 804 802 801 799 797 796 794 793 790 788 787 786 785 784 783 783 783 783 783 783
806 812 813 816 819 816 816 812 805 805 807 809 807 797 793 785 775 773 770 778 795 790 767 753 753 749 753 785 811 812 808 809 814 820 824 828 830 831 833 832 833 832 831 831 830 829 828 827 827 826 826 825 823 823 821 819 818 816 815 813 812 810 808 807 806 806 805 804 802 800 799 798 796 794 792 791 790 789 787 786 784 783 782 782 782 782
809 811 814 818 820 816 816 811 803 802 804 807 803 797 801 797 788 787 780 777 784 773 755 752 755 754 770 801 815 816 818 817 819 822 825 830 831 833 835 834 835 834 833 832 830 830 829 827 827 826 826 826 824 824 822 821 820 818 817 815 813 812 810 809 807 806 805 804 803 802 800 799 798 797 795 794 792 791 789 788 786 785 783 782 781 780
819 812 812 814 817 816 815 814 809 805 802 803 801 801 808 807 805 805 794 784 779 765 751 752 757 760 785 816 819 818 825 823 824 828 829 831 833 835 836 836 836 835 834 834 832 831 829 828 827 827 827 827 826 825 824 823 822 820 819 817 815 813 811 810 809 808 807 805 804 803 801 800 799 798 797 795 794 792 791 789 787 786 784 782 781 780
833 823 816 814 816 814 813 814 812 808 807 803 797 799 801 798 804 805 795 789 783 771 761 758 761 763 785 819 827 823 828 828 830 833 833 835 836 837 838 837 837 836 835 834 833 831 830 828 827 826 826 827 826 826 825 824 823 822 821 819 818 815 813 811 810 809 808 806 805 803 801 800 799 799 798 796 795 793 791 789 788 786 784 783 781 780
839 830 818 815 816 813 813 810 807 811 812 801 791 796 798 791 793 792 786 783 779 777 771 761 774 798 813 825 829 828 831 834 835 837 837 839 839 839 840 838 838 837 835 834 833 832 831 829 827 826 825 826 826 826 825 824 823 822 821 820 820 819 817 815 813 811 808 806 805 802 801 800 799 798 797 796 794 793 792 790 788 786 784 783 781 780
845 835 817 816 815 809 812 810 805 811 811 802 799 800 794 786 788 791 787 777 773 782 775 755 773 815 829 829 831 834 837 839 840 841 842 842 842 841 841 840 839 837 836 834 833 832 831 830 828 826 825 825 826 825 825 824 823 822 821 820 819 818 818 816 815 813 810 807 805 803 802 800 799 798 796 795 794 792 791 790 788 787 785 783 781 779
853 846 824 818 817 807 810 813 808 807 808 809 808 799 790 787 786 788 791 788 785 786 774 755 765 798 820 831 838 841 843 847 847 847 848 846 846 845 843 842 840 838 837 835 833 832 830 829 828 826 825 824 824 825 825 824 823 822 821 819 819 817 816 815 813 812 810 808 806 804 802 801 799 798 797 795 794 792 790 789 788 787 785 783 781 778
855 856 833 819 820 812 808 813 811 804 804 808 804 795 795 800 799 798 800 799 797 793 786 780 784 806 829 840 844 850 852 854 853 852 852 850 848 847 844 842 840 839 838 836 835 833 830 828 827 825 825 823 822 823 823 823 822 821 820 818 817 815 814 813 811 810 809 808 807 805 803 801 799 798 797 795 793 791 790 789 788 787 785 783 781 778
853 860 846 823 820 819 811 813 813 807 805 804 802 801 804 810 818 823 815 808 815 824 824 819 814 827 848 852 852 859 858 855 855 854 854 852 849 848 845 843 842 840 839 838 837 835 832 829 826 824 824 822 821 821 821 821 821 819 818 816 814 813 811 810 809 808 807 806 806 805 803 802 799 797 795 794 792 791 789 788 787 786 784 782 780 778
852 858 854 833 824 827 823 819 818 818 820 818 817 823 830 831 832 834 826 821 838 851 850 842 831 838 856 858 856 859 858 856 857 856 855 852 849 848 845 844 843 841 839 838 835 834 832 830 827 824 823 821 820 819 818 819 819 817 816 814 813 811 809 808 806 805 805 804 803 802 801 800 798 797 795 793 791 790 789 788 786 785 783 780 778 776
860 861 860 847 837 835 829 822 821 825 830 832 830 836 848 848 846 852 847 837 843 850 847 844 839 845 862 862 857 859 859 857 857 855 855 851 847 846 844 842 841 838 837 835 832 832 830 828 827 824 822 820 818 817 816 817 816 815 814 813 812 811 809 807 805 804 803 802 802 801 800 798 797 796 795 792 791 789 788 787 786 784 781 778 776 774
865 866 863 854 844 838 832 825 825 827 830 834 834 840 851 853 856 868 867 854 849 845 841 841 840 850 867 865 858 860 858 856 855 853 851 848 845 843 840 838 837 835 833 832 830 829 827 826 826 824 822 820 818 817 815 815 815 814 812 812 811 809 808 806 805 803 802 800 800 799 798 797 796 795 794 793 790 788 786 785 783 781 779 776 774 772
865 863 862 858 847 838 833 828 828 832 837 840 839 845 856 860 862 867 864 858 856 852 854 857 850 853 864 863 858 858 855 853 852 849 847 846 842 841 839 837 836 833 832 831 829 828 826 825 824 823 822 820 818 817 815 814 813 812 811 810 809 808 807 805 803 802 801 799 798 797 796 795 794 794 793 792 790 787 786 784 781 779 777 774 772 771
871 866 865 869 863 852 845 842 841 842 846 847 846 853 860 863 866 865 859 857 858 859 868 871 860 854 859 860 857 854 852 851 849 847 846 844 841 840 839 837 835 833 832 830 829 827 825 824 823 822 820 819 817 816 814 813 812 811 810 809 808 807 805 804 802 800 799 798 796 795 793 792 792 791 791 790 788 786 785 783 780 778 775 773 771 770
876 871 870 877 881 878 870 864 859 854 851 848 851 859 863 865 868 867 865 866 866 867 871 870 866 861 857 856 854 851 852 851 847 845 843 842 841 840 838 837 835 833 832 830 829 827 825 823 822 820 819 818 817 815 814 812 811 809 808 807 806 805 803 802 800 798 797 796 794 793 791 790 789 788 787 786 785 784 783 781 779 777 774 772 771 769
875 874 872 876 882 883 878 869 862 856 853 853 859 866 866 868 870 869 873 874 872 876 875 867 868 869 859 855 853 849 850 849 845 844 843 842 841 839 838 838 835 834 833 831 828 826 823 822 821 820 819 817 816 814 812 811 809 807 806 804 804 802 801 799 798 797 795 793 792 790 789 787 786 785 784 782 781 780 779 778 777 775 773 771 769 767
881 880 876 877 880 879 874 867 860 855 853 857 867 871 870 872 871 871 876 875 873 882 880 866 866 871 864 858 854 848 848 849 847 846 844 843 842 840 838 837 835 834 833 830 828 825 824 822 821 819 818 816 814 812 810 809 807 805 804 802 801 800 798 797 796 794 793 791 790 788 786 785 783 781 780 778 777 776 775 774 774 773 771 769 767 764
887 883 878 882 883 877 872 865 859 856 855 862 873 874 872 874 874 875 877 874 874 884 883 871 868 870 865 858 853 848 847 848 847 846 845 843 842 841 839 837 836 833 831 830 829 826 824 822 820 818 816 814 812 810 809 807 805 803 801 800 799 797 796 795 793 792 790 789 787 785 784 782 780 778 776 775 774 772 771 770 770 769 768 766 764 762
886 884 881 885 884 877 871 863 859 859 858 864 875 877 875 876 875 877 880 876 877 882 878 872 871 869 864 858 853 849 849 848 847 845 844 843 842 841 840 837 834 832 830 830 828 826 824 822 819 817 815 813 812 811 808 806 804 802 800 798 797 796 794 793 791 789 788 786 784 783 782 780 778 775 773 771 770 769 768 767 766 765 764 763 761 759
887 890 886 886 884 876 868 863 862 863 860 865 877 879 877 879 878 880 882 880 880 881 876 874 874 868 860 856 854 852 851 849 847 845 845 844 843 841 840 837 834 832 831 830 828 826 823 821 818 817 815 814 812 810 808 805 803 801 799 797 796 794 792 790 788 786 785 783 781 781 780 778 775 772 770 768 766 765 765 764 763 762 761 759 757 755
890 895 888 887 889 879 869 867 867 864 859 865 880 884 882 883 883 883 883 882 883 883 878 877 876 867 858 856 856 854 851 850 849 847 846 844 843 842 839 835 832 831 830 829 827 825 822 821 819 817 816 814 811 809 807 804 802 799 797 795 793 791 789 787 785 783 781 779 778 777 776 774 771 768 766 764 763 762 761 760 760 760 759 756 754 751
892 897 893 892 892 882 872 869 868 868 868 871 881 887 886 885 886 884 882 882 881 881 880 878 873 865 860 859 858 855 853 852 850 848 847 844 842 840 837 833 831 831 830 828 826 824 822 820 819 817 816 814 811 809 806 803 800 797 794 792 790 788 786 784 782 780 778 777 775 774 772 770 767 764 762 761 760 759 758 757 757 757 756 753 751 749
894 899 897 893 893 887 877 871 871 877 881 880 881 884 885 885 887 886 883 881 877 875 875 872 867 864 863 862 861 858 854 852 849 847 847 844 841 837 835 833 832 830 828 827 825 823 821 819 818 817 815 813 811 808 805 802 800 796 794 791 789 786 784 782 780 779 776 774 773 770 768 766 763 760 758 757 756 755 755 755 755 755 753 751 748 746
896 898 896 892 893 889 878 878 886 887 882 881 881 883 884 883 884 884 880 876 874 871 869 869 868 866 864 861 859 856 852 849 847 846 845 843 839 836 835 833 832 829 827 825 823 821 819 817 816 814 812 810 808 806 804 802 798 795 793 790 788 786 783 780 778 776 774 772 770 767 765 761 758 756 755 754 754 753 753 753 753 752 751 749 746 743
897 899 896 893 893 890 887 893 896 885 874 878 884 884 884 884 884 884 878 871 870 869 868 870 869 864 862 859 856 854 851 846 844 843 843 841 837 837 836 833 830 828 825 823 821 819 817 815 813 811 809 807 805 804 803 800 796 794 791 789 787 784 781 778 775 773 771 770 767 764 761 758 756 754 752 752 751 750 751 751 751 750 748 746 743 741
895 898 899 898 893 891 896 897 891 881 877 883 889 886 885 886 886 886 881 870 866 868 868 868 865 861 859 857 854 853 850 845 841 840 840 839 837 837 836 833 829 826 824 821 820 818 816 814 811 809 806 804 802 801 799 797 794 792 789 787 785 782 779 777 774 771 769 767 764 762 759 757 755 752 750 749 748 748 748 748 748 747 745 743 740 738
892 895 901 904 895 891 898 899 895 891 887 887 889 885 883 884 880 881 882 872 865 867 867 864 863 861 857 855 853 852 850 847 841 837 836 837 837 835 833 831 828 825 822 820 818 816 814 812 809 806 803 801 799 798 796 794 792 789 787 785 783 780 778 775 772 769 767 764 762 760 758 756 754 751 749 747 746 745 745 745 744 743 742 740 737 735
893 893 896 902 899 895 901 906 905 900 890 886 887 883 879 880 877 879 882 873 863 864 866 864 864 861 856 855 853 852 852 849 841 835 835 835 834 834 832 829 826 824 821 819 817 815 813 810 807 804 801 799 797 795 793 791 789 787 785 783 781 779 776 773 770 767 764 762 761 758 756 754 752 750 748 746 744 743 742 741 740 739 738 737 735 732
895 896 898 903 903 899 902 906 904 897 889 885 885 882 878 875 876 882 881 868 859 862 864 864 862 859 856 855 853 852 854 850 841 834 834 835 833 833 832 829 825 823 820 817 815 813 811 808 806 803 801 798 796 793 791 789 787 785 783 781 779 777 774 771 768 765 763 761 758 756 754 752 751 749 747 745 743 741 740 738 737 736 735 733 731 730
899 901 902 903 902 902 906 910 904 892 885 883 882 880 876 874 879 885 880 866 861 861 861 861 860 857 856 856 854 852 849 846 841 836 835 834 833 832 831 828 825 823 820 818 815 811 809 806 804 802 800 798 795 792 790 788 785 783 781 779 777 775 772 769 766 764 761 758 756 754 752 750 749 747 745 743 741 739 737 736 735 733 732 730 729 727
907 909 907 903 904 906 908 910 905 891 881 879 878 875 876 881 886 884 873 866 865 862 858 859 858 856 855 855 853 850 845 843 841 838 835 834 833 830 828 826 824 821 819 817 814 811 808 805 803 801 799 797 794 791 789 786 783 782 780 777 775 773 770 768 765 762 759 757 755 752 750 748 747 745 743 741 739 737 735 733 732 731 729 728 726 724
910 913 911 906 907 910 908 907 905 892 877 874 877 876 878 883 883 875 867 866 865 862 859 858 857 856 855 853 850 848 844 842 840 837 834 833 831 829 827 825 823 820 816 813 811 809 807 804 802 799 797 795 792 789 787 785 782 780 778 775 773 771 768 766 763 760 758 755 753 751 748 746 744 742 741 739 737 735 733 731 730 729 727 726 724 722
910 912 911 908 908 914 914 906 897 886 875 875 880 879 877 877 875 871 868 865 862 861 860 858 856 856 855 852 849 847 844 841 838 835 832 830 828 827 826 824 822 819 816 813 810 808 806 804 801 798 795 792 790 788 786 784 781 778 776 774 771 769 766 764 761 759 757 754 752 749 747 744 742 740 739 737 735 733 731 729 728 726 725 723 721 719
905 905 907 909 908 910 909 897 884 878 875 876 878 876 873 872 871 870 868 864 861 862 861 859 857 856 854 852 849 846 843 840 836 833 831 828 826 825 824 822 821 818 815 812 809 807 805 803 799 796 793 790 788 786 784 783 780 777 774 772 770 767 765 762 761 758 755 753 750 748 745 742 740 738 736 735 733 731 729 728 726 724 723 721 719 718
897 898 901 903 902 898 893 884 878 878 876 874 875 874 872 871 869 867 866 863 862 862 860 859 858 855 853 852 849 846 843 839 835 832 830 827 825 823 822 820 818 816 813 810 808 806 803 800 797 794 791 788 787 785 783 781 779 776 773 770 768 766 764 762 760 757 754 752 749 746 743 741 738 736 734 733 731 730 728 726 724 723 721 719 718 717
895 900 900 900 901 900 890 879 876 879 876 873 872 871 870 870 867 866 865 862 861 860 859 858 857 854 852 851 849 846 842 838 835 831 828 826 824 822 820 818 815 813 811 809 807 804 801 798 795 792 789 787 785 784 781 779 777 774 771 769 767 765 763 761 758 756 753 750 747 744 742 739 737 735 733 731 729 728 726 725 723 721 720 718 717 716
895 901 900 897 898 896 886 875 873 875 873 873 873 871 868 867 864 863 863 861 859 858 857 856 855 853 850 849 848 844 840 836 834 830 827 826 824 821 819 816 813 811 809 807 805 802 799 796 793 790 788 786 784 782 780 777 775 772 769 767 766 764 762 759 757 754 751 748 746 743 741 738 736 734 731 729 728 726 724 723 721 720 718 717 716 715
893 898 896 893 892 889 882 876 873 871 868 868 869 868 865 863 861 860 860 859 858 856 854 853 852 851 849 848 846 842 838 835 832 830 827 825 823 820 818 814 812 810 808 805 803 800 798 795 792 789 787 785 783 781 778 775 773 770 768 766 764 763 761 758 755 752 749 747 744 742 739 737 735 733 730 728 726 724 723 721 720 718 716 715 714 713
891 892 889 890 891 887 880 877 877 875 869 865 864 863 861 860 859 857 857 857 856 854 852 849 848 847 847 846 844 841 836 832 830 829 827 824 822 819 816 813 810 808 806 803 801 798 796 794 790 788 786 783 781 779 776 774 771 768 766 765 763 761 759 756 753 750 747 745 743 740 738 736 733 731 729 727 725 723 721 719 718 717 715 713 711 711
883 882 882 887 887 880 874 873 875 874 869 863 861 861 860 858 857 856 855 855 854 852 850 847 846 844 842 841 841 839 835 831 829 827 825 822 821 818 815 812 810 807 804 802 799 796 794 792 789 787 784 782 780 777 774 772 769 767 765 763 762 760 757 755 752 749 746 744 741 739 737 734 732 730 728 726 724 722 720 717 716 715 714 712 710 709
Wind_Speed
1 3 4 4 5 5 7 7 8 8 9 10 8 8 9 9 9 11 9 3 4 1 5 6 6 10 5 7 7 6 7 7 8 8 7 7 7 7 7 7 8 8 9 13 18 20 23 25 25 25 25 27 28 30 31 31 31 31 33 35 35 35 34 30 25 18 8 14 22 25 24 24 26 28 30 32 34 36 36 37 37 37 37 37 37 36
1 4 4 3 5 7 8 8 8 9 8 8 7 7 8 7 9 11 6 1 3 1 4 5 8 11 3 7 6 6 7 7 7 7 8 8 7 7 7 8 8 7 8 12 16 19 22 24 26 26 26 28 29 30 31 31 30 30 31 33 34 36 36 35 32 27 20 13 10 21 27 29 30 30 31 32 32 35 36 35 35 36 37 37 38 38
1 2 1 4 6 6 8 8 8 9 7 6 6 5 6 5 7 8 2 1 1 1 4 7 9 8 3 8 5 7 7 6 7 8 8 8 8 7 7 8 8 8 9 10 13 17 21 23 25 26 26 27 27 28 30 31 31 31 31 30 30 34 36 36 35 31 25 22 14 10 19 23 24 23 25 27 28 31 33 32 32 34 35 35 35 36
3 2 3 4 6 6 8 7 7 8 5 5 5 5 6 5 6 5 2 3 4 4 8 11 11 5 5 7 6 7 8 8 9 9 9 8 8 8 8 7 7 8 9 10 10 14 18 21 23 24 25 26 26 27 29 31 31 31 32 30 28 29 33 34 35 35 30 25 18 9 6 10 15 16 18 21 21 24 28 31 33 35 37 38 36 35
6 6 4 5 5 6 8 7 7 6 3 5 5 4 5 6 7 7 7 9 8 8 12 12 10 5 6 7 6 6 7 9 8 9 9 7 7 7 7 7 7 8 7 9 10 11 15 18 20 22 23 24 25 26 26 27 28 28 30 31 29 28 29 31 33 35 34 29 25 20 15 8 3 6 11 15 18 21 25 31 36 37 39 39 39 38
5 3 3 5 5 6 7 6 5 4 3 6 3 2 5 7 9 10 10 10 7 8 6 3 6 5 6 9 7 7 7 8 7 8 9 7 7 6 6 7 6 7 6 7 8 10 13 15 17 19 21 23 23 24 25 24 25 27 28 29 30 29 29 30 31 33 34 33 32 30 25 21 18 13 6 5 8 13 20 27 31 32 34 36 37 38
3 1 2 3 5 6 7 4 4 5 4 5 2 2 5 6 9 11 10 7 5 7 5 1 6 6 3 7 9 9 8 9 8 8 8 7 7 6 6 6 6 6 6 6 7 9 12 14 16 17 19 20 21 22 23 23 24 25 26 28 28 28 29 30 30 31 32 32 31 31 28 24 23 21 18 16 13 9 10 17 22 23 27 32 36 37
2 3 1 2 4 6 5 2 4 5 4 5 2 3 6 8 10 12 10 7 6 8 10 7 7 7 5 4 10 12 10 9 8 8 8 7 7 8 7 7 7 7 6 6 6 8 11 14 15 16 18 19 19 21 22 23 24 24 25 26 26 26 27 29 30 29 29 29 28 28 27 24 23 23 23 21 18 14 10 9 13 17 22 27 32 35
0 3 3 4 4 5 2 2 4 4 3 5 3 4 7 10 12 12 9 8 6 5 9 9 6 7 5 3 8 10 9 9 8 8 8 8 8 8 7 7 7 7 7 6 6 7 11 14 15 17 18 19 20 21 22 22 23 23 24 26 26 25 26 27 29 29 27 27 26 25 26 25 24 25 25 23 20 17 14 10 8 11 18 23 27 32
1 2 3 3 1 3 3 4 6 4 5 5 7 8 10 10 11 11 8 6 5 5 9 10 7 7 4 4 6 6 6 7 7 8 8 8 8 7 7 7 7 6 6 6 7 8 11 14 15 16 17 18 20 21 21 22 23 24 24 26 26 25 25 26 27 28 27 26 25 25 25 25 25 26 26 25 24 22 20 17 12 8 10 16 23 28
3 2 2 1 1 2 2 6 7 7 7 6 8 8 10 9 8 8 6 4 3 4 9 13 12 10 5 2 3 1 2 6 7 7 7 8 8 7 7 7 7 6 5 5 6 9 11 13 14 15 15 17 19 20 21 21 23 24 24 26 27 25 24 26 26 27 26 25 25 25 24 24 24 25 25 26 26 24 24 22 20 17 12 10 15 22
5 0 2 2 2 1 2 7 5 3 3 3 4 6 8 8 5 4 4 3 2 5 8 9 8 7 5 1 4 4 6 8 7 6 8 8 7 7 6 6 6 6 6 6 6 7 9 10 12 13 14 15 17 19 20 21 22 23 24 24 26 25 24 25 26 26 26 25 25 24 24 24 23 24 24 23 23 23 23 23 24 23 20 15 12 14
7 1 3 1 1 1 2 7 5 2 3 3 5 7 6 6 5 5 5 3 4 7 7 4 6 5 1 2 5 7 9 9 8 7 8 8 8 7 6 5 5 5 6 6 5 5 6 8 10 11 13 14 15 17 18 20 21 22 24 25 26 25 23 23 24 25 26 25 25 24 24 23 23 23 23 22 21 21 22 22 22 23 23 22 19 16
5 2 3 1 0 1 1 7 7 5 7 8 8 5 4 5 6 7 6 6 7 8 8 8 9 5 2 4 6 9 10 9 9 9 9 9 9 8 6 6 5 5 5 5 5 5 5 7 8 9 12 14 14 15 15 16 17 18 21 23 26 27 26 24 23 22 23 24 24 23 23 23 23 23 22 21 21 21 22 22 22 22 22 23 23 22
6 3 2 4 4 5 4 4 5 6 9 10 8 4 4 4 6 7 6 7 9 9 11 11 9 4 2 4 7 10 10 10 9 8 9 8 8 7 6 5 6 5 5 5 5 6 7 11 10 8 11 14 14 15 14 15 15 14 16 17 20 23 25 26 26 24 22 22 22 22 23 23 23 23 22 21 21 21 23 23 24 23 22 22 23 23
5 5 3 6 9 10 8 4 2 5 7 6 4 4 5 4 4 7 8 11 13 11 10 8 3 3 4 5 8 9 9 10 9 8 8 8 7 6 5 5 6 5 5 5 5 5 8 13 13 7 8 11 14 15 15 16 16 15 15 14 14 16 18 20 23 24 25 24 22 21 22 24 24 23 23 23 22 22 23 23 23 23 23 22 22 22
4 7 9 12 12 7 6 4 3 7 7 4 5 6 6 5 4 8 10 12 13 10 7 5 1 4 5 6 8 9 10 11 9 9 9 8 8 7 6 6 7 6 6 6 4 5 7 12 15 9 6 8 12 14 15 16 17 16 16 15 15 15 15 15 16 19 22 25 24 22 22 23 23 24 25 25 24 24 24 23 22 23 23 23 23 22
4 9 12 13 14 8 4 4 7 10 7 4 6 6 4 6 6 7 8 7 8 8 6 6 5 1 4 4 6 9 11 11 10 10 9 10 10 8 8 7 8 7 7 7 6 7 7 9 14 13 7 6 8 12 14 15 16 17 17 16 16 16 16 16 15 15 16 19 22 23 24 24 22 23 25 25 25 26 25 24 23 23 23 23 22 22
3 7 10 10 13 14 8 5 8 8 5 6 7 5 4 6 6 5 7 7 9 9 6 6 9 6 4 3 5 10 11 10 9 9 8 9 9 8 8 8 8 8 7 8 8 8 9 10 12 13 13 9 6 9 13 13 15 17 16 15 15 16 16 16 16 16 15 15 16 19 23 25 24 23 23 23 25 26 25 25 24 24 24 24 24 24
3 3 7 9 12 16 11 6 9 10 5 4 6 7 5 6 6 6 7 7 7 8 6 8 9 5 4 5 7 9 9 8 9 8 7 9 9 8 8 8 8 8 7 8 9 9 13 17 15 12 16 15 8 7 11 13 14 16 16 16 16 16 15 15 16 16 16 16 15 15 18 22 25 25 25 24 24 24 25 25 25 26 26 26 27 26
3 3 6 10 13 12 8 8 11 11 9 8 8 8 7 6 7 7 7 5 4 4 5 7 8 3 4 6 7 8 7 7 8 7 6 7 8 8 8 8 8 8 7 8 8 9 14 21 20 16 16 16 11 8 10 13 15 14 14 16 18 18 17 16 16 15 15 16 17 16 17 18 20 22 25 26 25 23 23 25 27 28 29 29 29 27
3 3 7 10 10 8 10 13 10 8 12 11 8 7 7 7 7 7 7 5 4 5 5 7 8 2 2 3 5 6 5 5 6 6 6 6 7 8 7 8 8 8 8 8 8 9 13 17 21 21 19 18 15 10 9 13 16 16 15 15 18 19 20 21 20 17 17 18 19 19 19 19 18 19 22 24 24 24 24 26 28 30 31 32 31 28
2 2 6 8 9 10 14 14 8 11 18 16 11 8 7 6 6 5 7 7 7 8 7 7 6 1 1 1 2 3 3 3 4 5 6 7 8 8 9 10 10 9 9 9 9 12 14 16 19 22 22 21 19 15 13 14 17 18 18 18 18 19 20 21 21 21 21 20 20 21 21 21 20 20 21 22 21 22 25 30 32 31 30 32 31 28
4 2 5 8 9 8 10 9 7 12 16 13 10 8 6 4 4 3 6 6 7 7 5 6 6 1 2 2 1 3 4 4 5 6 8 8 8 9 11 11 11 11 11 11 12 15 18 19 19 20 20 20 19 18 17 18 20 20 19 19 19 20 20 20 20 21 21 21 22 23 22 22 21 20 21 22 20 20 26 32 35 33 30 29 28 27
3 3 6 8 8 8 8 7 7 9 10 8 6 6 6 6 6 4 5 5 5 4 6 6 6 3 1 1 2 4 6 6 7 6 7 8 7 9 10 11 11 12 12 12 13 15 17 18 19 18 19 19 19 19 20 21 22 21 20 19 20 21 21 21 20 21 21 21 22 24 24 23 22 22 22 21 20 22 27 32 34 33 30 27 25 25
2 3 6 7 8 10 11 10 10 10 9 7 4 6 6 7 7 5 4 4 5 6 8 6 5 6 6 5 6 7 7 8 8 8 8 8 9 9 10 11 12 12 13 14 15 14 14 15 17 18 19 20 20 21 21 22 22 22 21 20 21 21 21 21 20 21 22 22 22 23 24 24 23 23 22 20 21 25 29 30 30 29 27 25 24 25
2 4 6 6 7 8 11 13 15 14 12 7 4 6 6 6 6 4 2 4 5 6 6 5 5 10 12 12 13 12 8 9 10 10 11 11 11 12 11 12 13 12 13 15 15 13 13 13 14 17 19 20 21 22 23 23 23 22 21 21 21 22 21 20 20 21 23 23 23 23 23 23 23 22 21 21 23 29 31 29 27 25 25 25 26 27
2 5 6 8 9 10 14 18 17 16 14 8 5 5 5 5 6 5 2 5 6 4 6 8 10 12 12 14 16 13 8 9 11 11 12 12 12 13 13 13 14 15 15 15 14 13 13 13 14 18 21 22 23 24 24 24 24 23 23 22 22 21 21 21 21 22 22 23 23 24 24 24 22 21 21 23 27 31 30 26 24 22 24 26 28 29
1 4 5 9 13 15 16 17 15 14 13 6 6 5 5 5 5 5 4 6 7 4 8 11 13 14 13 13 16 13 9 9 11 12 12 12 13 14 14 15 16 16 15 13 13 13 13 13 15 19 22 23 24 25 25 26 26 26 24 22 21 21 21 22 22 22 22 22 23 24 26 26 24 23 24 25 29 30 28 24 22 22 25 27 28 29
1 4 8 11 14 14 14 13 12 14 13 5 5 5 6 4 5 5 4 6 7 7 10 12 15 15 12 13 14 13 11 10 11 12 13 14 15 15 16 17 17 16 13 13 14 14 13 14 17 20 22 22 23 25 26 26 25 23 22 22 22 23 22 22 23 23 22 21 22 25 27 28 28 28 28 28 29 28 25 23 22 23 26 29 30 30
2 5 10 10 10 10 10 11 12 14 14 6 4 5 6 5 5 4 3 5 6 8 11 13 14 13 10 11 12 11 11 12 14 15 15 16 15 16 17 18 16 14 13 15 16 15 14 15 18 19 19 21 22 23 23 23 23 22 22 23 23 23 22 23 24 22 20 20 24 28 31 32 32 31 30 29 29 26 23 21 21 23 27 30 32 31
3 5 8 7 7 8 8 12 14 16 16 6 3 5 7 5 5 5 5 5 6 10 13 12 11 11 10 11 11 12 13 15 16 16 15 14 15 16 17 16 14 13 15 16 15 15 14 13 13 15 18 20 23 24 24 25 25 25 24 24 25 24 24 25 24 21 21 24 29 31 32 33 33 32 30 28 26 23 21 19 20 23 28 31 33 32
3 4 6 5 7 8 10 14 14 12 11 4 3 4 6 6 7 8 8 9 9 9 9 9 9 10 10 12 13 15 15 15 15 14 14 14 15 16 16 14 14 14 15 15 14 14 13 12 13 17 21 24 26 27 29 29 28 27 27 27 27 26 25 24 22 22 24 28 30 31 32 33 33 31 28 25 22 19 17 17 20 25 28 31 32 31
4 4 4 4 5 8 12 14 11 7 6 2 3 4 6 7 8 10 12 12 10 8 8 9 10 10 11 11 13 14 14 15 15 14 14 14 14 14 13 13 14 15 15 14 13 12 12 13 16 20 23 27 28 29 29 29 28 28 28 28 27 26 25 24 24 26 27 29 30 31 34 35 34 29 24 19 16 14 15 17 22 26 28 30 30 29
4 5 4 3 4 7 9 9 8 6 2 2 5 6 7 7 8 13 15 12 9 11 10 9 9 10 12 12 12 13 15 16 16 15 15 14 12 11 13 15 15 16 15 13 12 12 14 16 19 21 23 25 26 26 29 30 30 29 29 30 29 28 28 28 28 29 29 29 31 34 37 36 31 23 18 15 14 14 17 20 24 26 27 28 29 27
4 4 4 4 4 5 5 5 6 7 3 3 4 6 7 6 9 13 15 11 8 9 8 7 9 12 13 14 14 14 16 18 16 13 12 12 11 12 14 16 16 16 15 14 14 14 18 21 23 23 23 23 23 26 31 33 31 29 28 29 30 31 31 31 30 30 30 31 33 34 32 27 20 17 16 18 18 19 19 21 24 26 26 27 27 26
3 3 4 4 3 3 5 6 6 8 6 1 1 3 5 7 9 10 12 12 7 4 5 9 13 16 16 16 15 15 16 17 15 10 8 10 12 15 18 20 20 20 20 19 19 20 23 26 26 26 25 23 24 27 31 31 27 26 27 29 30 31 29 28 30 32 32 30 29 27 25 22 21 22 24 24 23 22 20 21 24 25 26 26 26 26
4 3 4 4 3 3 5 6 5 7 6 1 2 2 4 8 10 9 11 10 2 2 9 14 17 19 18 16 16 16 15 13 12 9 8 10 14 18 21 24 26 26 25 23 22 24 26 28 29 29 25 23 25 29 29 26 24 25 27 28 28 27 26 28 32 32 28 25 25 26 26 25 26 26 25 23 20 19 20 22 24 25 25 25 25 26
4 4 2 3 4 4 5 6 5 6 4 2 4 5 8 11 11 9 10 8 0 6 13 16 17 19 17 16 16 15 11 10 11 9 10 14 19 20 20 24 29 31 27 25 25 26 28 31 31 29 25 25 29 29 26 23 25 26 26 26 26 25 27 29 29 27 26 27 29 28 25 23 22 22 22 21 21 22 24 25 26 26 25 25 24 25
5 4 3 3 4 4 5 6 4 4 3 3 4 7 13 13 10 8 9 6 6 11 14 14 16 17 15 15 15 11 9 10 10 11 15 19 21 23 24 26 28 28 26 27 29 31 32 30 27 25 26 29 28 26 25 27 27 25 24 25 26 26 27 27 26 27 30 31 30 26 22 21 22 24 25 25 26 26 26 26 25 25 24 24 23 24
4 3 3 4 4 4 5 5 5 5 4 4 4 10 14 11 8 6 8 8 11 16 15 14 15 15 13 13 12 9 10 11 12 15 19 20 20 24 28 27 26 26 28 31 34 35 31 26 23 24 26 26 25 27 30 29 26 23 24 26 26 25 25 25 27 30 30 28 25 24 23 24 25 26 25 25 25 25 25 24 24 24 24 24 24 23
3 2 2 4 4 3 3 4 7 6 3 2 10 12 8 6 6 6 8 9 13 16 16 14 14 13 13 13 11 11 13 14 16 17 18 17 18 21 23 23 25 29 32 33 33 30 26 23 24 24 23 24 28 31 30 26 23 24 26 25 24 24 26 27 28 27 26 26 26 26 27 27 26 24 23 23 23 24 24 24 23 23 24 23 23 23
1 1 2 3 2 3 4 4 5 5 2 7 14 11 4 3 7 8 9 11 12 13 14 13 12 12 13 14 14 15 15 17 19 18 16 16 18 19 19 22 26 30 32 31 28 26 24 24 24 25 26 29 31 29 25 23 24 25 25 23 23 26 27 26 24 24 26 28 28 27 27 26 25 24 23 23 23 23 23 23 23 23 23 22 22 22
2 2 2 2 1 1 4 3 4 7 7 9 10 8 6 7 8 10 11 11 10 10 11 10 11 13 14 15 16 16 16 18 19 18 17 17 16 16 18 23 27 28 28 26 25 25 25 25 26 28 31 31 27 23 23 24 25 25 24 24 26 26 24 22 23 26 28 27 26 26 26 25 24 24 23 22 22 22 22 22 21 21 21 20 19 18
5 5 2 3 3 3 6 8 9 10 10 8 7 9 11 12 11 12 13 12 10 9 9 9 12 14 14 15 16 16 16 17 18 17 18 17 15 15 21 25 26 26 26 24 24 25 27 28 29 31 30 26 23 23 25 25 24 23 24 25 25 23 21 23 26 27 25 24 24 26 26 25 24 23 22 20 20 20 20 19 19 19 18 17 17 16
5 4 2 2 3 6 9 10 10 11 11 11 10 10 12 13 12 12 12 11 10 10 9 10 12 14 14 14 15 15 16 17 18 18 16 14 14 18 24 26 26 25 24 22 24 28 30 30 29 28 25 22 23 26 27 25 23 23 24 23 22 22 23 25 26 24 23 24 25 25 25 24 23 21 20 19 19 18 18 18 17 17 17 16 15 15
3 3 2 3 4 6 7 7 7 10 13 14 14 13 13 12 11 11 11 11 11 11 11 11 14 15 14 13 14 17 18 17 17 16 14 12 14 19 24 25 25 24 22 23 28 32 31 28 26 24 22 22 25 27 26 24 24 24 22 20 21 23 24 24 23 22 23 25 25 25 23 22 21 20 20 20 19 18 17 16 16 17 16 15 14 14
3 3 2 5 6 7 10 13 12 12 13 12 11 11 11 11 11 11 11 13 15 15 14 15 16 15 13 14 16 17 17 16 16 15 13 12 15 20 24 25 23 22 23 28 31 30 27 25 24 22 22 23 26 27 25 24 26 24 19 19 22 22 23 23 22 22 24 25 25 23 21 20 20 20 20 19 18 18 17 17 17 17 16 16 16 16
4 3 3 4 6 8 11 12 12 13 12 10 9 10 10 11 13 13 12 13 15 15 15 17 19 17 15 17 19 18 17 16 15 14 13 13 15 21 25 25 22 22 27 31 31 26 25 25 24 23 23 24 26 26 25 25 26 23 18 19 21 20 21 24 24 23 24 24 23 21 20 20 20 19 19 19 18 18 18 17 17 18 19 20 19 18
3 4 4 3 5 7 8 8 8 10 11 10 11 13 14 14 14 14 14 13 13 14 15 16 18 18 18 20 22 19 15 15 15 16 16 15 18 24 26 24 22 25 30 31 28 25 25 25 24 24 25 25 25 26 24 25 26 22 17 18 20 20 22 24 23 22 22 21 20 21 20 20 19 18 18 19 18 18 18 17 16 16 18 19 18 16
5 6 5 4 6 9 10 9 8 8 10 12 13 15 15 15 14 14 14 14 15 18 18 14 13 15 17 22 25 22 17 15 18 19 18 18 24 28 26 21 23 28 31 29 25 24 26 25 24 24 24 24 26 26 24 24 25 20 16 19 21 21 22 23 22 21 20 20 20 21 20 19 19 19 19 18 18 17 18 18 18 17 15 15 16 16
Wind_Direction
31 308 268 264 282 314 338 346 334 326 321 313 305 294 283 283 282 280 282 236 150 200 244 242 265 273 261 120 116 105 100 98 96 92 85 79 70 64 57 52 45 40 37 27 25 25 24 23 21 20 19 17 18 19 19 20 21 21 21 21 20 18 18 18 13 0 305 229 213 209 211 213 216 218 215 213 212 210 211 211 211 210 207 204 202 200
112 267 270 307 334 345 336 328 321 311 306 301 291 284 280 272 275 283 289 146 113 144 260 269 276 272 239 117 112 103 94 86 91 92 87 81 73 65 55 49 43 36 30 25 24 23 23 24 22 23 22 21 20 19 19 19 20 21 20 19 19 19 19 20 18 12 3 342 262 221 216 216 217 218 217 216 214 213 213 211 212 212 209 208 206 203
263 245 358 355 345 337 315 310 305 292 287 285 280 277 277 276 283 291 316 95 156 198 275 278 267 266 117 108 102 95 94 83 81 83 84 81 75 67 55 49 41 35 28 23 23 21 21 22 22 23 22 23 22 20 20 20 20 21 20 18 16 16 17 19 18 16 15 8 348 264 234 225 221 221 220 219 217 217 215 212 213 214 211 210 209 207
300 300 19 341 328 324 310 314 306 292 281 267 269 271 275 298 310 303 328 305 277 258 272 272 265 255 115 112 99 97 103 98 90 84 81 78 78 75 67 61 47 39 30 23 23 19 19 20 20 21 20 21 21 21 21 20 21 20 18 19 17 15 14 15 16 17 18 17 13 357 298 242 225 223 221 219 218 218 217 216 218 219 217 216 214 212
280 294 354 338 325 323 311 311 308 306 302 285 285 287 296 324 322 307 310 309 299 272 260 260 268 250 166 157 127 119 119 109 105 97 89 81 81 78 73 68 54 47 35 24 22 17 19 18 18 19 17 18 19 19 19 19 20 19 18 19 19 19 16 14 13 15 18 20 20 19 16 7 307 246 222 219 221 219 216 218 221 223 221 219 217 215
278 292 28 347 328 326 307 299 319 346 331 308 317 335 326 331 316 302 304 311 305 285 270 239 273 269 170 165 149 143 137 120 113 103 98 88 78 72 62 60 51 46 40 31 24 17 17 16 14 16 16 16 16 16 15 16 18 18 18 18 18 19 18 17 15 14 17 21 23 22 22 20 14 5 344 292 261 240 227 225 227 226 223 220 218 215
283 323 72 333 324 325 305 298 358 11 339 306 300 314 318 315 300 294 297 298 277 280 296 252 263 278 197 174 160 149 139 126 119 104 97 89 79 73 61 54 46 39 35 31 27 20 16 13 11 12 13 14 13 11 12 14 15 16 17 17 17 18 18 17 17 15 17 19 21 22 22 21 18 11 0 353 345 320 268 245 241 237 232 227 222 219
271 300 317 341 339 324 317 347 7 2 325 285 288 330 316 300 287 284 280 267 257 278 285 260 241 260 262 191 150 143 136 129 124 108 98 91 81 73 65 58 48 39 32 28 28 22 17 14 10 9 10 12 10 9 11 13 13 13 15 15 15 17 17 17 17 17 18 18 17 17 17 18 16 11 2 356 354 350 332 285 262 250 242 236 230 227
196 314 349 29 358 319 343 359 331 341 294 268 307 328 297 280 275 274 269 262 265 281 281 266 237 251 266 134 131 137 135 135 128 113 101 92 83 75 65 57 49 40 31 28 26 24 20 14 11 10 9 10 10 10 11 11 10 11 12 12 13 15 15 15 16 17 18 17 16 14 13 12 10 7 4 1 357 354 350 338 307 263 247 241 236 233
315 27 31 59 355 314 358 328 305 283 256 289 323 302 279 269 262 261 254 253 264 260 266 270 259 259 262 133 143 152 143 143 127 109 102 93 83 75 63 51 43 35 28 24 20 23 23 15 9 9 10 10 10 10 10 10 10 9 9 9 10 11 12 12 13 14 16 16 15 14 11 9 6 3 1 2 0 357 352 347 340 316 271 249 241 237
261 104 86 66 340 323 327 300 282 250 256 320 329 293 284 278 260 254 239 213 246 251 256 266 265 260 258 126 120 105 99 120 120 114 106 96 83 70 61 48 33 24 18 17 12 15 20 15 7 6 9 8 7 7 8 9 10 9 8 7 7 7 9 9 10 11 12 14 15 14 11 7 4 0 359 360 359 357 354 349 342 334 320 287 256 245
311 59 112 54 2 44 268 287 292 264 272 325 300 286 300 295 277 275 255 173 192 255 264 274 284 275 264 63 78 52 46 72 97 109 103 94 82 67 56 45 32 17 7 5 7 6 10 11 5 4 6 4 3 5 5 4 4 5 5 4 4 5 5 5 6 7 8 11 12 12 10 7 4 360 358 356 354 353 352 348 343 336 328 316 295 267
334 32 114 85 343 93 294 307 321 317 292 289 288 299 312 307 301 299 291 267 251 269 277 324 351 327 286 78 90 84 64 63 70 80 88 83 72 61 46 37 27 15 6 360 358 353 356 6 6 5 4 4 4 4 4 1 358 359 358 358 359 0 2 4 3 4 4 6 8 8 8 6 3 360 357 353 349 348 346 344 341 338 332 325 317 305
347 81 92 69 306 184 291 324 322 316 315 309 307 309 302 303 303 296 293 286 272 274 288 313 318 293 150 84 78 83 74 69 67 66 70 64 56 47 35 26 13 9 9 355 346 341 344 353 2 12 7 3 3 2 4 2 356 355 354 353 354 354 354 358 0 2 2 2 2 4 5 4 2 359 356 352 347 344 341 339 336 334 333 329 324 318
331 338 36 39 350 311 306 311 288 299 309 297 292 290 277 279 284 282 286 290 287 286 289 290 291 285 126 91 79 80 73 66 63 59 58 53 48 39 25 14 2 359 359 349 341 339 343 342 350 24 17 0 359 357 358 359 355 354 353 350 350 349 349 349 351 355 358 359 358 359 0 0 359 357 354 351 347 343 339 336 334 332 330 328 326 323
308 298 327 349 323 303 297 294 257 289 294 285 296 302 280 272 279 279 276 280 282 283 281 274 285 46 83 106 90 79 71 64 54 50 48 42 40 31 13 4 358 350 346 342 337 338 346 341 339 14 29 2 355 353 352 353 352 350 349 349 348 346 345 343 343 346 349 352 354 356 357 356 354 354 351 349 346 344 340 335 332 330 327 325 324 323
323 298 311 325 313 279 255 271 281 278 285 306 308 292 282 286 291 285 280 276 274 275 275 265 235 99 112 110 85 73 66 56 41 36 36 28 21 13 7 5 354 347 343 338 334 333 345 342 334 344 28 10 350 347 347 346 345 345 343 344 346 344 344 343 341 339 340 343 347 350 353 353 351 350 348 346 344 341 339 336 332 329 327 326 325 323
352 299 304 323 320 304 238 246 270 267 268 289 291 294 294 279 272 279 288 283 275 275 270 277 292 52 115 103 75 61 48 41 33 27 23 17 10 3 6 3 351 352 347 339 339 331 336 345 335 334 356 2 342 340 340 337 339 341 338 338 341 340 341 342 340 338 336 337 338 340 345 348 348 347 345 344 341 339 338 336 334 332 328 327 326 324
2 298 300 320 321 318 314 296 291 282 246 234 269 322 341 297 300 307 301 298 295 293 301 330 339 8 66 65 57 45 32 29 26 18 12 10 7 357 354 355 351 353 350 347 349 338 335 340 333 329 331 328 328 333 331 331 335 334 329 328 331 332 334 336 336 336 337 336 333 333 336 339 341 343 343 342 339 338 338 336 335 332 329 327 324 321
336 286 296 312 315 317 319 319 320 325 326 273 294 345 354 322 333 338 318 316 319 315 323 344 348 14 47 32 42 41 28 20 14 8 3 358 355 345 345 355 353 349 353 352 347 342 341 336 328 326 326 323 323 328 325 325 326 325 324 323 321 319 320 325 327 330 331 331 328 326 327 330 332 335 338 339 338 337 336 335 333 330 326 323 320 318
318 280 290 304 312 317 324 334 335 343 356 348 342 360 7 354 351 343 332 342 350 330 324 327 330 24 55 29 41 41 23 14 7 359 346 336 339 342 343 350 346 339 343 343 338 339 339 333 327 324 319 314 309 309 313 312 310 313 321 323 322 319 318 320 320 321 325 325 322 319 319 322 325 328 330 333 334 335 335 333 330 327 323 319 318 317
352 301 290 301 314 322 324 327 339 13 15 358 348 10 21 8 3 346 329 342 343 320 311 311 314 8 53 13 42 43 16 4 349 334 327 323 329 333 332 335 332 331 333 330 326 330 331 329 325 321 314 308 306 307 311 310 308 314 323 323 321 322 322 323 324 324 325 323 320 318 318 323 325 323 323 325 327 327 329 331 328 324 320 317 316 315
14 293 279 299 309 311 316 321 341 15 8 353 343 14 30 15 19 357 318 326 324 311 312 315 314 315 204 282 40 33 355 342 325 315 320 321 323 324 327 331 329 326 327 325 324 328 329 326 321 318 313 310 315 322 323 318 317 322 327 324 321 320 319 319 320 321 319 316 314 313 315 318 319 318 318 317 317 320 323 327 326 323 318 315 313 312
0 316 295 306 303 296 303 313 338 3 3 344 332 11 38 27 20 319 286 305 309 313 337 326 314 331 179 212 357 354 334 324 320 323 326 325 326 329 332 333 330 328 330 330 329 327 327 326 321 317 313 313 321 329 327 324 323 324 324 322 320 319 317 316 315 315 315 315 313 312 311 312 312 312 313 311 313 317 320 322 322 320 318 314 311 310
347 329 322 318 314 315 314 316 334 356 353 326 331 28 44 26 8 319 291 305 307 355 16 328 297 328 55 171 304 336 336 323 319 324 324 322 325 329 330 328 327 328 329 329 328 326 327 326 321 318 318 320 326 329 326 324 322 321 319 318 317 315 313 313 312 312 314 314 311 308 306 306 306 307 306 305 310 316 317 317 316 316 318 314 309 308
300 314 323 325 325 326 327 327 330 336 330 319 356 36 32 32 19 343 321 316 319 355 354 318 293 318 327 318 318 326 324 312 311 316 317 319 324 326 327 327 327 329 328 327 326 322 322 323 322 325 329 328 326 325 323 320 317 314 313 312 312 310 308 308 309 310 312 312 308 304 301 298 297 299 299 298 306 314 315 312 310 312 316 312 306 304
303 310 314 325 326 316 314 315 316 317 317 327 23 34 27 37 19 357 341 314 324 331 313 308 329 322 319 324 324 321 316 311 317 326 329 328 328 328 328 327 329 330 326 322 319 318 322 325 326 328 327 323 319 316 315 314 312 311 310 309 308 307 306 308 311 311 309 308 306 303 299 294 289 290 292 292 303 312 313 309 306 307 310 309 305 302
341 309 324 335 326 310 304 304 307 313 320 343 41 39 25 28 11 12 359 323 337 324 294 316 328 316 315 322 320 317 319 322 326 330 329 326 325 327 327 328 330 327 322 321 323 328 333 330 326 325 321 316 313 312 311 310 309 307 305 304 304 306 307 311 314 313 309 307 306 304 301 295 288 285 283 287 300 309 310 305 300 299 303 306 304 301
323 299 344 341 318 307 302 300 308 320 326 4 59 31 21 27 5 1 343 337 355 328 294 311 315 309 312 314 312 317 324 328 327 324 322 323 325 327 329 330 327 321 321 329 334 334 331 324 320 319 316 315 317 318 317 314 309 304 301 300 305 307 308 311 313 311 308 306 305 305 303 297 289 283 282 288 299 306 304 297 291 292 301 304 303 301
23 318 340 330 307 300 301 305 321 330 327 354 65 34 22 17 353 2 354 343 345 310 296 307 307 303 306 309 314 324 330 326 322 320 324 327 327 329 330 326 319 319 328 336 332 325 319 316 315 317 320 325 331 331 329 326 322 317 311 311 312 309 307 309 310 307 305 307 309 310 308 300 290 284 285 290 297 299 294 287 285 292 301 303 301 301
23 336 328 319 300 298 308 315 327 328 318 321 82 46 15 2 353 4 346 334 332 306 302 308 303 298 306 317 321 325 326 323 320 322 327 327 327 330 325 316 314 324 333 332 325 319 317 317 321 328 334 336 337 335 333 332 329 324 316 311 307 303 303 305 304 302 304 310 314 315 310 302 292 285 284 289 292 289 283 282 288 296 300 301 301 301
17 329 317 317 303 304 319 323 324 321 312 307 82 30 4 4 348 334 326 332 328 311 309 309 302 302 316 329 328 324 324 323 321 324 325 323 326 324 314 309 317 331 333 328 324 321 320 322 330 337 336 333 332 330 327 324 319 313 308 304 301 297 298 300 299 300 306 311 312 310 305 300 292 285 282 285 285 281 279 284 293 299 299 298 299 300
7 329 316 320 304 301 318 323 321 319 311 307 84 29 0 352 334 321 318 319 312 305 305 301 298 309 324 332 329 323 322 321 319 322 323 322 320 312 306 314 327 332 329 325 322 321 322 328 334 335 333 330 327 324 321 318 313 309 306 305 303 301 300 301 301 303 307 309 307 304 302 298 291 283 280 280 279 277 279 288 296 299 298 296 297 297
348 335 314 311 300 301 314 318 319 318 315 319 96 57 10 347 333 319 311 311 305 293 286 288 301 319 326 325 321 317 317 317 315 318 321 316 309 306 315 329 331 326 324 322 319 320 325 330 331 330 328 326 323 323 325 324 320 319 319 318 317 316 314 312 310 308 307 306 305 303 302 298 289 282 280 280 281 281 285 294 299 299 296 295 295 294
351 339 314 301 294 297 310 322 326 323 334 123 111 59 15 347 334 318 306 300 296 295 298 307 318 323 318 316 318 317 316 314 312 314 314 308 307 320 331 330 324 320 320 318 317 318 323 326 323 320 320 321 322 327 330 325 320 320 321 321 320 319 316 313 309 307 305 306 305 302 299 295 288 283 286 290 291 290 290 295 298 296 293 293 292 291
20 334 310 306 292 295 322 336 316 308 334 99 82 30 13 351 341 325 308 300 304 307 314 321 317 316 318 319 321 319 316 312 308 307 306 306 319 336 331 321 318 318 317 315 316 319 322 321 317 315 316 317 320 326 325 319 315 315 316 317 316 313 310 308 307 307 307 306 303 300 299 299 301 303 308 307 301 294 290 293 294 292 290 290 289 288
47 340 318 317 302 307 323 311 289 297 315 41 49 6 13 349 337 324 306 306 316 324 333 330 323 323 322 318 316 318 316 310 303 300 305 316 331 334 323 316 316 316 313 312 314 318 320 320 317 315 314 313 316 320 319 315 315 317 317 316 314 310 308 309 309 307 305 304 305 308 312 317 318 315 311 306 297 289 288 291 291 288 288 288 287 286
41 348 325 310 312 338 320 308 308 308 305 204 211 303 359 340 330 325 308 299 271 49 347 339 329 321 317 315 318 320 317 306 299 304 322 330 332 328 322 319 320 319 316 314 317 320 321 320 317 313 310 312 315 316 316 316 319 320 317 314 311 309 311 312 307 303 304 309 315 317 316 314 311 308 305 300 293 290 292 291 288 287 287 286 284 283
20 344 321 292 305 327 321 314 312 300 289 199 238 304 346 341 335 333 306 283 148 14 345 333 319 313 314 318 320 320 315 304 298 308 328 331 330 330 326 322 321 320 318 320 323 323 321 320 317 314 315 317 317 318 320 323 324 320 314 312 312 313 311 307 303 305 312 315 314 310 309 310 311 310 309 306 303 300 296 291 288 287 286 283 282 282
2 349 340 317 307 317 319 310 286 271 274 231 251 327 345 338 333 322 290 285 344 343 331 321 313 312 317 319 319 316 307 300 302 314 325 326 326 328 324 319 319 322 325 328 326 322 320 321 322 324 325 323 321 325 328 327 322 317 314 314 314 310 306 303 306 312 312 308 305 306 309 315 316 313 309 306 302 298 294 290 288 287 285 284 283 283
341 339 324 310 307 313 310 297 282 276 260 239 294 342 341 326 313 297 285 306 329 323 319 318 313 314 318 317 314 307 298 300 307 314 319 321 321 321 318 317 321 326 326 323 319 317 319 324 329 329 326 324 325 327 326 322 319 317 316 315 310 305 305 307 309 309 308 308 310 314 316 317 314 308 303 300 298 295 292 290 288 286 286 287 286 285
329 340 313 303 313 313 278 277 290 277 220 317 332 338 344 325 302 290 293 311 316 312 313 315 313 317 320 313 306 302 303 309 312 313 316 319 318 316 317 320 324 324 320 316 315 318 323 327 328 326 323 322 322 321 319 320 320 319 316 310 305 306 310 310 308 310 317 322 323 320 317 315 310 305 302 300 299 296 293 292 291 289 287 287 286 286
331 338 292 286 319 315 286 284 289 265 263 351 337 332 350 329 304 300 305 309 308 307 311 314 317 321 318 311 309 310 312 313 313 312 314 314 315 315 317 323 324 322 319 318 320 327 332 330 326 323 320 318 317 317 321 325 322 316 311 306 307 310 311 311 316 325 329 326 322 318 315 312 309 307 304 301 299 296 294 293 293 291 288 286 285 284
181 169 265 274 105 1 299 273 252 263 291 332 331 313 308 309 305 309 310 306 306 312 315 317 318 317 316 315 314 315 315 314 313 314 313 312 314 317 319 324 325 321 318 320 326 332 332 326 322 319 317 316 318 323 328 325 317 310 307 307 310 312 313 321 329 330 326 322 319 317 314 312 311 310 306 303 300 296 293 291 290 289 288 285 283 284
180 175 222 248 198 200 234 245 261 277 294 316 315 303 306 309 308 309 305 302 309 317 319 318 314 314 316 316 315 315 313 311 312 313 313 313 317 321 323 324 323 318 316 321 326 328 325 320 318 316 315 317 324 328 326 320 313 307 306 308 312 316 323 330 329 325 321 319 318 316 315 313 313 312 309 305 303 298 294 292 290 288 289 287 287 289
179 177 204 236 250 256 246 246 264 285 296 302 302 303 307 307 307 308 305 305 311 314 315 314 310 311 315 317 318 315 310 310 311 310 311 315 318 322 322 320 317 316 318 323 325 323 321 319 317 314 314 319 326 326 321 316 312 307 305 311 321 327 328 325 322 320 317 317 317 317 316 314 312 312 312 310 307 302 298 297 296 294 293 293 292 292
164 153 190 233 270 285 270 258 267 282 294 304 308 308 305 300 303 310 310 309 311 310 311 312 311 311 314 319 319 312 308 310 311 309 312 319 319 320 320 316 314 317 321 325 324 322 321 320 316 314 318 323 325 322 318 315 312 308 308 320 330 329 323 318 316 315 314 315 316 316 314 312 311 312 314 313 311 308 304 302 301 299 299 301 302 305
153 135 204 234 241 257 269 278 283 284 288 297 300 297 298 301 306 310 309 310 311 308 307 309 310 311 315 321 318 311 308 310 310 311 316 320 318 318 316 313 314 319 323 324 323 321 319 317 314 316 321 323 321 318 315 315 313 308 310 324 329 326 322 318 314 311 311 313 313 312 310 311 311 311 313 312 311 310 309 307 304 301 299 300 300 300
139 156 216 235 248 258 269 284 300 302 295 292 291 291 300 309 310 310 312 312 310 307 305 306 307 309 316 320 316 310 308 308 309 314 317 317 316 316 313 312 315 320 323 323 321 319 318 315 314 319 322 320 318 316 314 315 313 308 311 325 327 325 325 321 315 310 309 309 310 309 308 310 309 309 310 310 310 310 308 307 306 303 300 298 296 289
160 220 232 252 275 274 272 285 305 305 297 299 306 307 310 315 314 313 314 313 311 309 306 305 308 312 316 317 314 309 306 306 312 317 316 313 314 313 311 312 317 322 323 321 317 316 316 314 315 320 319 316 317 315 312 314 313 309 314 328 327 322 324 323 318 312 309 307 307 308 307 308 308 309 310 308 308 309 309 308 308 304 302 304 303 297
202 214 204 217 255 265 273 284 292 289 285 296 307 309 311 315 314 310 311 313 312 310 308 309 316 318 317 316 313 308 302 306 316 320 315 311 312 310 308 312 321 323 321 317 315 316 315 314 316 317 315 315 316 311 310 315 316 313 322 331 326 321 322 323 320 314 309 306 306 306 306 306 307 310 311 309 306 308 309 310 311 310 307 308 310 310